Volver al catálogo

NOAA 16 DEB

ActivoPO
NORAD 41419·DEBRIS·🇺🇸 United States

Lanzado Sep 21, 2000 desde Vandenberg Space Force Base

Loading…

Próximos Pases (próximas 24 horas)

TLE

ActualizadoSource: Space-Track

Época: Sep 13, 2026, 21:13 UTC

1 41419U 00055KY  26256.88424463  .00030799  00000-0  40483-2 0  9998
2 41419  98.8363  46.1818 0010149 137.3041 222.8958 14.80106787547958

Sigue NOAA 16 DEB en tiempo real con AllMySat

Download on the App Store